User: anonymous   Login
Location: Caltech
(34.1382°N, 118.1253°W)
Time: 12:14:23
(UTC-08:00)
Language:

Spot 4 Rocket - Orbit

View from above orbital plane
View from above orbital plane
View from above satellite
View from above satellite

Ground track
Ground track

The orbit data is extracted from the following two-line orbital elements,

1 25261U 98017B   15026.88981441  .00000295  00000-0  12296-3 0  7838
2 25261 098.4388 339.5966 0004058 141.4348 282.9382 14.33167907880057
Epoch (UTC): 26 January 2015 21:21:19
Eccentricity: 0.0004058
inclination: 98.4388°
perigee height: 778 km
apogee height: 784 km
right ascension of ascending node: 339.5966°
argument of perigee: 141.4348°
revolutions per day: 14.33167907
mean anomaly at epoch: 282.9382°
orbit number at epoch: 88005

The dashed part of the orbit path shows where the satellite is in the earth's shadow,  

DLR